Weather History for Arbor Vitae, WI

Change the Weather History Date:

Sunday, May 19, 2013

  Actual Average Record
Temperature  
Mean Temperature 70 °F -  
Max Temperature 80 °F 67 °F 89 °F (1972)
Min Temperature 59 °F 42 °F 17 °F (1929)
Cooling Degree Days 4    
Growing Degree Days 20 (Base 50)    
Moisture  
Dew Point 59 °F    
Average Humidity 70    
Maximum Humidity 94    
Minimum Humidity 44    
Precipitation  
Precipitation 0.00 in - - ()
Sea Level Pressure  
Sea Level Pressure 29.84 in    
Wind  
Wind Speed 7 mph (SSE)    
Max Wind Speed 16 mph    
Max Gust Speed 21 mph    
Visibility 8 miles    
Events Rain    
Averages and records for this station are not official NWS values.
T = Trace of Precipitation, MM = Missing Value Source: NWS Daily Summary

Daily Weather History Graph

Daily Weather History Graph

Search for Another Location

Airport:

Trip Planner

Search our weather history database for the weather conditions in past years. The results will help you decide how hot, cold, wet, or windy it might be!

Date:

Astronomy

May. 19, 2013 Rise Set
Actual Time 5:22 AM CDT 8:29 PM CDT
Civil Twilight 4:46 AM CDT 9:04 PM CDT
Nautical Twilight 4:00 AM CDT 9:51 PM CDT
Astronomical Twilight 3:04 AM CDT 10:47 PM CDT
Moon 2:15 PM CDT (5/19) 2:05 AM CDT (5/19)
Length of Visible Light 16h 18m
Length of Day
15h 06m
Waxing Gibbous, 65% of the Moon is Illuminated
May 19
Waxing Gibbous
May 24
Full
May 31
Last Quarter
Jun 8
New
Jun 16
First Quarter

Hourly Weather History & Observations

Time (CDT) Temp. Heat Index Dew Point Humidity Pressure Visibility Wind Dir Wind Speed Gust Speed Precip Events Conditions
12:15 AM 62.6 °F - 59.0 °F 88% 29.93 in 5.0 mi SSE 5.8 mph - N/A Rain Light Rain
12:35 AM 62.6 °F - 59.0 °F 88% 29.92 in 7.0 mi SSE 6.9 mph - N/A Rain Light Rain
12:55 AM 60.8 °F - 59.0 °F 94% 29.92 in 7.0 mi South 4.6 mph - N/A   Mostly Cloudy
1:15 AM 60.8 °F - 59.0 °F 94% 29.92 in 7.0 mi South 5.8 mph - N/A   Scattered Clouds
1:35 AM 60.8 °F - 59.0 °F 94% 29.92 in 7.0 mi SSE 4.6 mph - N/A   Clear
1:55 AM 60.8 °F - 59.0 °F 94% 29.92 in 7.0 mi South 4.6 mph - N/A   Clear
2:15 AM 60.8 °F - 59.0 °F 94% 29.92 in 5.0 mi SSE 3.5 mph - N/A   Clear
2:35 AM 60.8 °F - 59.0 °F 94% 29.91 in 5.0 mi SE 3.5 mph - N/A   Clear
2:55 AM 60.8 °F - 59.0 °F 94% 29.91 in 4.0 mi SE 3.5 mph - N/A   Clear
3:15 AM 59.0 °F - 55.4 °F 88% 29.92 in 3.0 mi Calm Calm - N/A   Clear
3:35 AM 59.0 °F - 57.2 °F 94% 29.92 in 4.0 mi SE 4.6 mph - N/A   Scattered Clouds
3:55 AM 60.8 °F - 57.2 °F 88% 29.93 in 4.0 mi SSE 3.5 mph - N/A   Mostly Cloudy
4:15 AM 60.8 °F - 59.0 °F 94% 29.94 in 4.0 mi South 3.5 mph - N/A   Overcast
4:35 AM 60.8 °F - 59.0 °F 94% 29.94 in 5.0 mi South 4.6 mph - N/A   Mostly Cloudy
4:55 AM 60.8 °F - 59.0 °F 94% 29.94 in 5.0 mi South 5.8 mph - N/A   Overcast
5:15 AM 60.8 °F - 59.0 °F 94% 29.94 in 5.0 mi South 4.6 mph - N/A   Mostly Cloudy
5:35 AM 60.8 °F - 59.0 °F 94% 29.93 in 4.0 mi South 6.9 mph - N/A   Mostly Cloudy
5:55 AM 60.8 °F - 59.0 °F 94% 29.91 in 4.0 mi South 4.6 mph - N/A   Mostly Cloudy
6:15 AM 60.8 °F - 59.0 °F 94% 29.91 in 4.0 mi South 5.8 mph - N/A   Scattered Clouds
6:35 AM 60.8 °F - 57.2 °F 88% 29.91 in 4.0 mi SSE 4.6 mph - N/A   Clear
6:55 AM 62.6 °F - 59.0 °F 88% 29.92 in 5.0 mi South 6.9 mph - N/A   Scattered Clouds
7:15 AM 62.6 °F - 59.0 °F 88% 29.91 in 5.0 mi South 5.8 mph - N/A   Clear
7:35 AM 64.4 °F - 59.0 °F 83% 29.91 in 7.0 mi South 8.1 mph - N/A   Clear
7:55 AM 66.2 °F - 60.8 °F 83% 29.91 in 7.0 mi South 10.4 mph - N/A   Clear
8:15 AM 66.2 °F - 59.0 °F 78% - 7.0 mi SSW 8.1 mph - N/A   Clear
8:35 AM 69.8 °F - 60.8 °F 73% 29.91 in 10.0 mi South 8.1 mph - N/A   Scattered Clouds
8:55 AM 71.6 °F - 62.6 °F 73% 29.91 in 10.0 mi South 13.8 mph - N/A   Clear
9:15 AM 71.6 °F - 62.6 °F 73% 29.91 in 10.0 mi South 9.2 mph - N/A   Mostly Cloudy
9:55 AM 71.6 °F - 60.8 °F 69% 29.89 in 10.0 mi South 9.2 mph - N/A   Scattered Clouds
10:15 AM 71.6 °F - 59.0 °F 64% 29.89 in 10.0 mi South 11.5 mph - N/A   Clear
10:35 AM 71.6 °F - 59.0 °F 64% 29.89 in 10.0 mi South 9.2 mph - N/A   Clear
10:55 AM 71.6 °F - 59.0 °F 64% 29.88 in 10.0 mi SSE 6.9 mph - N/A   Clear
11:15 AM 73.4 °F - 60.8 °F 65% 29.85 in 10.0 mi SSE 10.4 mph - N/A   Clear
11:35 AM 77.0 °F - 62.6 °F 61% 29.83 in 10.0 mi SE 12.7 mph 16.1 mph N/A   Clear
11:55 AM 77.0 °F - 59.0 °F 54% 29.83 in 10.0 mi SSE 16.1 mph 20.7 mph N/A   Clear
12:15 PM 77.0 °F - 59.0 °F 54% 29.83 in 10.0 mi SSE 12.7 mph 20.7 mph N/A   Clear
12:35 PM 77.0 °F - 57.2 °F 50% 29.81 in 10.0 mi SSE 12.7 mph 19.6 mph N/A   Clear
12:55 PM 78.8 °F - 59.0 °F 51% 29.80 in 10.0 mi SSE 11.5 mph 18.4 mph N/A   Clear
1:15 PM 78.8 °F - 59.0 °F 51% 29.80 in 10.0 mi SE 9.2 mph - N/A   Clear
1:35 PM 78.8 °F - 57.2 °F 47% 29.80 in 10.0 mi SSE 11.5 mph 19.6 mph N/A   Clear
2:15 PM 78.8 °F - 55.4 °F 44% 29.79 in 10.0 mi SSE 12.7 mph - N/A   Clear
2:35 PM 80.6 °F 81.1 °F 59.0 °F 48% 29.80 in 10.0 mi South 12.7 mph 16.1 mph N/A   Clear
2:55 PM 78.8 °F - 59.0 °F 51% 29.79 in 10.0 mi South 12.7 mph 17.3 mph N/A   Clear
3:15 PM 78.8 °F - 57.2 °F 47% 29.80 in 10.0 mi South 11.5 mph 17.3 mph N/A   Clear
3:35 PM 78.8 °F - 59.0 °F 51% 29.81 in 10.0 mi SSE 9.2 mph 18.4 mph N/A   Scattered Clouds
3:55 PM 78.8 °F - 59.0 °F 51% 29.80 in 10.0 mi SE 10.4 mph - N/A   Scattered Clouds
4:15 PM 78.8 °F - 59.0 °F 51% 29.79 in 10.0 mi SSE 8.1 mph 16.1 mph N/A   Mostly Cloudy
4:35 PM 80.6 °F 80.8 °F 57.2 °F 45% 29.79 in 10.0 mi South 8.1 mph 17.3 mph N/A   Mostly Cloudy
4:55 PM 80.6 °F 80.8 °F 57.2 °F 45% 29.79 in 10.0 mi South 8.1 mph - N/A   Mostly Cloudy
5:15 PM 80.6 °F 80.8 °F 57.2 °F 45% 29.78 in 10.0 mi South 11.5 mph 17.3 mph N/A   Scattered Clouds
5:35 PM 78.8 °F - 59.0 °F 51% 29.78 in 10.0 mi SSE 11.5 mph 18.4 mph N/A   Mostly Cloudy
5:55 PM 78.8 °F - 60.8 °F 54% 29.77 in 10.0 mi SSE 9.2 mph - N/A   Mostly Cloudy
6:15 PM 78.8 °F - 59.0 °F 51% 29.77 in 10.0 mi South 9.2 mph 18.4 mph N/A   Scattered Clouds
6:35 PM 78.8 °F - 60.8 °F 54% 29.77 in 10.0 mi SSE 8.1 mph - N/A   Clear
6:55 PM 77.0 °F - 59.0 °F 54% 29.76 in 10.0 mi South 10.4 mph - N/A   Clear
7:15 PM 77.0 °F - 60.8 °F 57% 29.76 in 10.0 mi SE 8.1 mph - N/A   Clear
7:35 PM 77.0 °F - 60.8 °F 57% 29.76 in 10.0 mi SSE 8.1 mph - N/A   Clear
7:55 PM 77.0 °F - 60.8 °F 57% 29.76 in 10.0 mi SE 5.8 mph - N/A   Clear
8:15 PM 77.0 °F - 60.8 °F 57% 29.76 in 10.0 mi SE 4.6 mph - N/A   Clear
8:35 PM 73.4 °F - 59.0 °F 61% 29.76 in 10.0 mi ESE 5.8 mph - N/A   Clear
8:55 PM 71.6 °F - 59.0 °F 64% 29.76 in 10.0 mi SE 6.9 mph - N/A   Clear
9:15 PM 73.4 °F - 59.0 °F 61% 29.77 in 10.0 mi SE 8.1 mph - N/A   Scattered Clouds
9:35 PM 73.4 °F - 59.0 °F 61% 29.77 in 10.0 mi SE 12.7 mph 17.3 mph N/A   Mostly Cloudy
9:55 PM 71.6 °F - 59.0 °F 64% 29.77 in 10.0 mi SE 10.4 mph - N/A   Scattered Clouds
10:15 PM 71.6 °F - 59.0 °F 64% 29.77 in 10.0 mi SE 8.1 mph - N/A   Mostly Cloudy
10:35 PM 71.6 °F - 60.8 °F 69% 29.79 in 10.0 mi South 6.9 mph - N/A   Scattered Clouds
10:55 PM 69.8 °F - 59.0 °F 68% 29.79 in 10.0 mi Calm Calm - N/A   Mostly Cloudy
11:15 PM 68.0 °F - 59.0 °F 73% 29.77 in 10.0 mi ENE 4.6 mph - N/A   Mostly Cloudy
11:35 PM 69.8 °F - 59.0 °F 68% 29.76 in 10.0 mi East 3.5 mph - N/A   Clear
11:55 PM 71.6 °F - 62.6 °F 73% 29.76 in 10.0 mi East 5.8 mph - N/A   Scattered Clouds